User: anonymous   Login
Location: Unspecified
(0.0000°N, 0.0000°E)
Time: 08:03:38
(UTC+00:00)
Language:

OBJECT NZ - Orbit

View from above orbital plane
View from above orbital plane
View from above satellite
View from above satellite

Ground track
Ground track

The orbit data is extracted from the following two-line orbital elements,

1 43551U 98067NZ  20223.80268298 +.00081063 +00000-0 +29569-3 0  9992
2 43551 051.6322 355.4660 0005191 315.9351 044.1240 15.87701536118997
Epoch (UTC): 10 August 2020 19:15:51
Eccentricity: 0.0005191
inclination: 51.6322°
perigee height: 305 km
apogee height: 312 km
right ascension of ascending node: 355.4660°
argument of perigee: 315.9351°
revolutions per day: 15.87701536
mean anomaly at epoch: 44.1240°
orbit number at epoch: 11899

The dashed part of the orbit path shows where the satellite is in the earth's shadow,  

DLR